Погода в Хафаре-эле-Батине

Саудовская Аравия     28°26′02″N   45°58′19″E
темп.,
°C
ветер,
м/с
пор.,
м/с
влажн.,
%
обл.,
%
осадки,
мм/ч
давл.,
гПа
погр.,
м
12 августа, пт
пт1200:00+33сз57260 0.0 100089
03:00+31сз57270 0.0 100083
06:00+30сз514270 0.0 1001253
09:00+38ссз1115150 0.0 1001953
12:00+44ссз1214100 0.0 9991652
15:00+45с1213100 0.0 9972256
18:00+42ссз1015130 0.0 997556
21:00+36ссз611190 0.0 999160
13 августа, сб
сб1300:00+33ссз511230 0.0 999144
03:00+31ссз512230 0.0 998162
06:00+30ссз614220 0.0 999232
09:00+38ссз1013140 0.0 999893
12:00+43ссз91090 0.0 9981910
15:00+45с101080 0.0 9962503
18:00+41с610100 0.0 996158
21:00+36с56150 0.0 99852
14 августа, вс
вс1400:00+34ссз55160 0.0 99841
03:00+30с22190 0.0 99811
06:00+31с33170 0.0 100018
09:00+39с57110 0.0 1000656
12:00+43с6680 0.0 9992343
15:00+45с7770 0.0 9973210
18:00+41ссз6890 0.0 997106
21:00+36ссз55130 0.0 99945
15 августа, пн
пн1500:00+33с48180 0.0 99983
03:00+31с33210 0.0 99915
06:00+31с512220 0.0 1000165
09:00+39ссв810131 0.0 1001865
12:00+45ссв771039 0.0 10002815
15:00+46ссв67731 0.0 9985108
18:00+42ссв57863 0.0 99878
21:00+35всв12114 0.0 100111
16 августа, вт
вт1600:00+34сз331436 0.0 100111
03:00+31сз3321100 0.0 100112
06:00+31ссз562197 0.0 100365
09:00+38ссз8101492 0.0 1002551
12:00+44ссз77841 0.0 10001606
15:00+45ссз87695 0.0 9982397
18:00+42ссз57755 0.0 99978
21:00+36ссз55115 0.0 100037